Regional Weather Roundup
Issued by NWS Newport/Morehead, NC

Current Version | Previous Version | Graphics & Text | Print | Product List | Glossary Off
Versions: 1 2 3 4 5 6 7 8 9 10 11 12 13 14 15 16 17 18 19 20 21 22 23 24 25 26 27 28 29 30 31 32 33 34 35 36 37 38 39 40 41 42 43 44 45 46 47 48 49 50

000
ASUS42 KMHX 101924
RWRMHX
WEATHER ROUNDUP FOR EASTERN NORTH CAROLINA
NATIONAL WEATHER SERVICE NEWPORT/MOREHEAD CITY NC
200 PM EST SAT DEC 10 2016

NOTE: "FAIR" INDICATES FEW OR NO CLOUDS BELOW 12,000 FEET
WITH NO SIGNIFICANT WEATHER AND/OR OBSTRUCTIONS TO VISIBILITY

NCZ015>017-031-032-045>047-102-103-102000-
NORTH COAST

CITY           SKY/WX    TMP DP  RH WIND       PRES   REMARKS
EDENTON        SUNNY     42  18  37 W5        30.47F
ELIZABETH CITY SUNNY     41  18  39 W12G18    30.46F
KITTY HAWK     CLEAR     40  24  52 W3        30.44F
MANTEO         SUNNY     39  17  41 NW7       30.46F

$$

NCZ045>047-081-094-103-104-102000-
CENTRAL COAST

CITY           SKY/WX    TMP DP  RH WIND       PRES   REMARKS
FRISCO         SUNNY     43  22  43 NW8       30.46F

$$

NCZ095-097-098-100-101-102000-
SOUTHERN COAST

CITY           SKY/WX    TMP DP  RH WIND       PRES   REMARKS
BEAUFORT       SUNNY     46  19  34 NW7       30.48S
CEDAR ISLAND   NOT AVBL
JACKSONVILLE   SUNNY     44  17  33 NW7       30.48F
PINEY ISLAND   CLEAR    N/A N/A N/A VRB7      30.48S
WILMINGTON     SUNNY     44  18  35 NW8       30.49F


$$

NCZ011>013-027>030-043-044-078>080-089-090>093-098-102000-
COASTAL PLAIN

CITY           SKY/WX    TMP DP  RH WIND       PRES   REMARKS
AHOSKIE        SUNNY     39  16  39 SW3       30.47F
CLINTON        SUNNY     41  18  39 NW5       30.50F
ELIZABETHTOWN  SUNNY     43  16  34 NW6       30.49F
GOLDSBORO      SUNNY     42  14  31 NW5       30.47F
GREENVILLE     SUNNY     41  18  38 NW6       30.47F
HAVELOCK       SUNNY     44  19  36 VRB5      30.49F
KENANSVILLE    SUNNY     41  16  36 W7        30.49F
KINSTON        SUNNY     43  16  33 NW7       30.49F
NEW BERN       SUNNY     43  17  35 NW8       30.49F
RICHLANDS      SUNNY     42  17  36 VRB6      30.49F
ROCKY MOUNT    SUNNY     40  16  37 W6        30.47F
WASHINGTON     SUNNY     42  16  35 W6        30.48F
WHITEVILLE     SUNNY     43  17  34 N5        30.49F

$$

AMZ130-135-150-152-154-156-158-170-250-252-270-ANZ085-086-088-633-658-670-102000-
MARINE OBSERVATIONS

STATION/POSITION TIME  TEMP    WIND        PRES    WAVE   SWELL
                       AIR SEA DIR/SP/G            HT/PER HT/PER
                 (UTC) (F)     (DEG/KT/KT) (MB)    (FT/S) (FT/S)
CHESAPEAKE LIGHT NOT AVBL
64 E VA BEACH    1850   40 58  300/ 10/ 14 1030.1    3/ 7   3/ 7
DUCK             1900   38 51  320/  4/  5 1030.4
2 E DUCK         NOT AVBL
OREGON INLET     1854   40 50  300/  7/ 11 1031.2
13E OREGON INLT  NOT AVBL
HATTERAS CG      1854   40 52  310/ 10/ 12 1031.2
DIAMOND BUOY     1850   43 77  340/ 12/ 16 1031.2    4/ 8   3/ 8
CAPE LOOKOUT     1900   42     320/  6/  8 1031.7
BEAUFORT LAB     1854   42 48  350/  6/  9 1030.9
30 SE NEW RVR IN 1908   44 68  360/  8/ 14 1032.0
30 SE NEW RVR IN 1913      68                N/A     2/ 6
27 SE WRIGHTSVLE 1908   44 69  330/  8/ 16 1031.8
5 SE WRIGHTSVLE  1908   42 60  350/  8/ 14 1031.7
225 S CAPE HAT   1850   60 73   10/  8/ 12 1027.8    4/ 9   5/ 9
41 SE CHARLESTON 1850   50 73   10/ 12/ 21 1031.2    3/ 5   2/ 8

$$




USA.gov is the U.S. government's official web portal to all federal, state and local government web resources and services.